Weather History for KENV - January, 2014

Change the Weather History Date:

Sunday, January 5, 2014

  Actual Average Record
Temperature  
Mean Temperature 24 °F -  
Max Temperature 33 °F 32 °F 58 °F (1980)
Min Temperature 14 °F 17 °F -12 °F (1942)
Degree Days  
Heating Degree Days 42    
Moisture  
Dew Point 8 °F    
Average Humidity 55    
Maximum Humidity 73    
Minimum Humidity 32    
Precipitation  
Precipitation 0.00 in - - ()
Sea Level Pressure  
Sea Level Pressure 30.38 in    
Wind  
Wind Speed 6 mph (ENE)    
Max Wind Speed 14 mph    
Max Gust Speed 21 mph    
Visibility 10 miles    
Events      
Averages and records for this station are not official NWS values.
T = Trace of Precipitation, MM = Missing Value Source: NWS Daily Summary

Daily Weather History Graph

Daily Weather History Graph

Search for Another Location

Airport or City:

Trip Planner

Search our weather history database for the weather conditions in past years. The results will help you decide how hot, cold, wet, or windy it might be!

Date:

Astronomy

Jan. 05, 2014 Rise Set
Actual Time 8:00 AM MST 5:23 PM MST
Civil Twilight 7:29 AM MST 5:53 PM MST
Nautical Twilight 6:55 AM MST 6:28 PM MST
Astronomical Twilight 6:22 AM MST 7:01 PM MST
Moon 10:42 AM MST (1/5) 10:57 PM MST (1/5)
Length of Visible Light 10h 24m
Length of Day
9h 22m
Waxing Crescent, 25% of the Moon is Illuminated
Jan 5
Waxing Crescent
Jan 7
First Quarter
Jan 15
Full
Jan 23
Last Quarter
Jan 30
New

Hourly Weather History & Observations

Time (MST) Temp. Windchill Dew Point Humidity Pressure Visibility Wind Dir Wind Speed Gust Speed Precip Events Conditions
12:15 AM 28.4 °F 18.5 °F 3.2 °F 34% 30.26 in 10.0 mi WNW 11.5 mph - N/A   Clear
12:35 AM 30.2 °F 21.9 °F 3.2 °F 32% 30.26 in 10.0 mi WNW 9.2 mph - N/A   Clear
12:55 AM 28.4 °F 20.4 °F 5.0 °F 37% 30.25 in 10.0 mi South 8.1 mph 20.7 mph N/A   Clear
1:15 AM 26.6 °F 18.2 °F 3.2 °F 37% 30.25 in 10.0 mi SW 8.1 mph - N/A   Clear
1:35 AM 26.6 °F 21.2 °F 3.2 °F 37% 30.25 in 10.0 mi SW 4.6 mph - N/A   Clear
1:55 AM 26.6 °F - 3.2 °F 37% 30.26 in 10.0 mi Calm Calm - N/A   Clear
2:15 AM 26.6 °F 21.2 °F 3.2 °F 37% 30.26 in 10.0 mi SSW 4.6 mph - N/A   Clear
2:35 AM 26.6 °F 20.0 °F 3.2 °F 37% 30.26 in 10.0 mi East 5.8 mph - N/A   Clear
2:55 AM 26.6 °F - 3.2 °F 37% 30.27 in 10.0 mi Calm Calm - N/A   Clear
3:15 AM 24.8 °F 19.1 °F 3.2 °F 40% 30.28 in 10.0 mi NNW 4.6 mph - N/A   Clear
3:35 AM 24.8 °F 19.1 °F 3.2 °F 40% 30.28 in 10.0 mi South 4.6 mph - N/A   Clear
3:55 AM 21.2 °F 12.6 °F 5.0 °F 50% 30.29 in 10.0 mi SSW 6.9 mph - N/A   Clear
4:15 AM 23.0 °F 13.9 °F 6.8 °F 50% 30.29 in 10.0 mi South 8.1 mph - N/A   Clear
4:35 AM 26.6 °F 19.1 °F 6.8 °F 43% 30.30 in 10.0 mi SE 6.9 mph - N/A   Clear
4:55 AM 19.4 °F 6.0 °F 5.0 °F 54% 30.31 in 10.0 mi NE 13.8 mph - N/A   Clear
5:15 AM 21.2 °F 11.7 °F 6.8 °F 54% 30.32 in 10.0 mi NE 8.1 mph - N/A   Clear
5:35 AM 19.4 °F 12.8 °F 6.8 °F 58% 30.32 in 10.0 mi ENE 4.6 mph - N/A   Clear
5:55 AM 19.4 °F - 6.8 °F 58% 30.33 in 10.0 mi Calm Calm - N/A   Clear
6:15 AM 17.6 °F 12.3 °F 6.8 °F 63% 30.33 in 10.0 mi East 3.5 mph - N/A   Clear
6:35 AM 17.6 °F - 6.8 °F 63% 30.34 in 10.0 mi Calm Calm - N/A   Clear
6:55 AM 15.8 °F 10.2 °F 6.8 °F 68% 30.34 in 10.0 mi WNW 3.5 mph - N/A   Clear
7:15 AM 15.8 °F - 6.8 °F 68% 30.35 in 10.0 mi Calm Calm - N/A   Clear
7:35 AM 14.0 °F - 5.0 °F 67% 30.36 in 10.0 mi Calm Calm - N/A   Clear
7:55 AM 14.0 °F - 6.8 °F 73% 30.36 in 10.0 mi Calm Calm - N/A   Clear
8:15 AM 17.6 °F - 8.6 °F 68% 30.37 in 10.0 mi Calm Calm - N/A   Clear
8:35 AM 19.4 °F - 6.8 °F 58% 30.38 in 10.0 mi Calm Calm - N/A   Clear
8:55 AM 17.6 °F 12.3 °F 6.8 °F 63% 30.39 in 10.0 mi SSE 3.5 mph - N/A   Clear
9:15 AM 19.4 °F - 8.6 °F 63% 30.40 in 10.0 mi Calm Calm - N/A   Clear
9:35 AM 26.6 °F 17.5 °F 8.6 °F 47% 30.40 in 10.0 mi NNW 9.2 mph - N/A   Clear
9:55 AM 30.2 °F 24.3 °F 6.8 °F 37% 30.41 in 10.0 mi SSW 5.8 mph - N/A   Clear
10:15 AM 32.0 °F 25.6 °F 8.6 °F 38% 30.41 in 10.0 mi SSW 6.9 mph - N/A   Clear
10:35 AM 33.8 °F - 6.8 °F 32% 30.41 in 10.0 mi Calm Calm - N/A   Clear
10:55 AM 24.8 °F 16.1 °F 10.4 °F 54% 30.41 in 10.0 mi ENE 8.1 mph - N/A   Clear
11:15 AM 24.8 °F 16.1 °F 10.4 °F 54% 30.41 in 10.0 mi ENE 8.1 mph - N/A   Clear
11:35 AM 23.0 °F 11.7 °F 10.4 °F 59% 30.42 in 10.0 mi NE 11.5 mph - N/A   Clear
11:55 AM 21.2 °F 8.9 °F 12.2 °F 68% 30.41 in 10.0 mi ENE 12.7 mph - N/A   Clear
12:15 PM 23.0 °F 10.6 °F 10.4 °F 59% 30.40 in 10.0 mi NE 13.8 mph - N/A   Clear
12:35 PM 24.8 °F 13.4 °F 10.4 °F 54% 30.39 in 10.0 mi ENE 12.7 mph - N/A   Clear
12:55 PM 24.8 °F 15.3 °F 10.4 °F 54% 30.39 in 10.0 mi East 9.2 mph - N/A   Clear
1:15 PM 26.6 °F 19.1 °F 12.2 °F 55% 30.38 in 10.0 mi East 6.9 mph - N/A   Clear
1:35 PM 26.6 °F 20.0 °F 10.4 °F 51% 30.39 in 10.0 mi East 5.8 mph - N/A   Clear
1:55 PM 26.6 °F 22.6 °F 12.2 °F 55% 30.38 in 10.0 mi East 3.5 mph - N/A   Clear
2:15 PM 28.4 °F 21.2 °F 12.2 °F 51% 30.37 in 10.0 mi ESE 6.9 mph - N/A   Clear
2:35 PM 28.4 °F 22.2 °F 12.2 °F 51% 30.38 in 10.0 mi East 5.8 mph - N/A   Clear
2:55 PM 26.6 °F 21.2 °F 12.2 °F 55% 30.38 in 10.0 mi East 4.6 mph - N/A   Clear
3:15 PM 28.4 °F 23.3 °F 12.2 °F 51% 30.38 in 10.0 mi ESE 4.6 mph - N/A   Clear
3:35 PM 28.4 °F 23.3 °F 12.2 °F 51% 30.39 in 10.0 mi East 4.6 mph - N/A   Clear
3:55 PM 28.4 °F 21.2 °F 12.2 °F 51% 30.40 in 10.0 mi ENE 6.9 mph - N/A   Clear
4:15 PM 28.4 °F 21.2 °F 12.2 °F 51% 30.40 in 10.0 mi ENE 6.9 mph - N/A   Clear
4:35 PM 28.4 °F 21.2 °F 10.4 °F 47% 30.40 in 10.0 mi ENE 6.9 mph - N/A   Clear
4:55 PM 26.6 °F 19.1 °F 10.4 °F 51% 30.41 in 10.0 mi ENE 6.9 mph - N/A   Clear
5:15 PM 26.6 °F 20.0 °F 10.4 °F 51% 30.41 in 10.0 mi NE 5.8 mph - N/A   Clear
5:35 PM 24.8 °F 16.9 °F 10.4 °F 54% 30.42 in 10.0 mi ENE 6.9 mph - N/A   Clear
5:55 PM 24.8 °F 19.1 °F 12.2 °F 59% 30.42 in 10.0 mi ENE 4.6 mph - N/A   Clear
6:15 PM 24.8 °F 20.5 °F 10.4 °F 54% 30.43 in 10.0 mi NE 3.5 mph - N/A   Clear
6:35 PM 24.8 °F 20.5 °F 10.4 °F 54% 30.43 in 10.0 mi NE 3.5 mph - N/A   Clear
6:55 PM 23.0 °F 18.4 °F 10.4 °F 59% 30.44 in 10.0 mi West 3.5 mph - N/A   Clear
7:15 PM 21.2 °F 13.6 °F 10.4 °F 63% 30.45 in 10.0 mi West 5.8 mph - N/A   Clear
7:35 PM 19.4 °F 11.5 °F 10.4 °F 68% 30.44 in 10.0 mi West 5.8 mph - N/A   Clear
7:55 PM 19.4 °F - 10.4 °F 68% 30.44 in 10.0 mi Calm Calm - N/A   Clear
8:15 PM 19.4 °F 11.5 °F 10.4 °F 68% 30.45 in 10.0 mi WSW 5.8 mph - N/A   Clear
8:35 PM 19.4 °F 14.3 °F 8.6 °F 63% 30.45 in 10.0 mi West 3.5 mph - N/A   Clear
8:55 PM 19.4 °F - 8.6 °F 63% 30.46 in 10.0 mi Calm Calm - N/A   Clear
9:15 PM 19.4 °F - 8.6 °F 63% 30.45 in 10.0 mi Calm Calm - N/A   Clear
9:35 PM 17.6 °F 10.7 °F 8.6 °F 68% 30.45 in 10.0 mi WSW 4.6 mph - N/A   Clear
9:55 PM 17.6 °F - 6.8 °F 63% 30.45 in 10.0 mi Calm Calm - N/A   Clear
10:15 PM 17.6 °F 12.3 °F 10.4 °F 73% 30.45 in 10.0 mi NNE 3.5 mph - N/A   Clear
10:35 PM 15.8 °F 8.6 °F 8.6 °F 73% 30.45 in 10.0 mi ENE 4.6 mph - N/A   Clear
10:55 PM 17.6 °F 9.3 °F 8.6 °F 68% 30.46 in 10.0 mi NE 5.8 mph - N/A   Clear
11:15 PM 17.6 °F 10.7 °F 8.6 °F 68% 30.46 in 10.0 mi ENE 4.6 mph - N/A   Clear
11:35 PM 17.6 °F 9.3 °F 8.6 °F 68% 30.46 in 10.0 mi NE 5.8 mph - N/A   Clear
11:55 PM 17.6 °F 12.3 °F 8.6 °F 68% 30.46 in 10.0 mi ENE 3.5 mph - N/A   Clear